Plattsburgh, NY

10:20 PM EST on December 14, 2019 (GMT -0500)
Plattsburgh International

Weather History for KPBG - October, 2019

Change the Weather History Date:

Tuesday, October 8, 2019

  Actual Average Record
Temperature  
Mean Temperature 50 °F 50 °F  
Max Temperature 63 °F 60 °F 80 °F (1963)
Min Temperature 38 °F 40 °F 22 °F (1964)
Degree Days  
Heating Degree Days 14 15  
Month to date heating degree days 113 109  
Since 1 July heating degree days 305 344  
Cooling Degree Days 0 0  
Month to date cooling degree days 0 0  
Year to date cooling degree days 406 345  
Moisture  
Dew Point 44 °F    
Average Humidity 74    
Maximum Humidity 93    
Minimum Humidity 44    
Precipitation  
Precipitation 0.00 in - 1.09 in (1982)
Month to date precipitation 1.38 0.00  
Year to date precipitation 23.00  
Sea Level Pressure  
Sea Level Pressure 30.29 in    
Wind  
Wind Speed 3 mph ()    
Max Wind Speed 12 mph    
Max Gust Speed 16 mph    
Visibility 9.8 miles    
Events      
T = Trace of Precipitation, MM = Missing Value Source: Averaged Metar Reports

Daily Weather History Graph

Daily Weather History Graph

Search for Another Location

Airport or City:

Astronomy

Oct. 08, 2019 Rise Set
Actual Time 7:00 AM EDT 6:22 PM EDT
Civil Twilight 6:30 AM EDT 6:51 PM EDT
Nautical Twilight 5:57 AM EDT 7:24 PM EDT
Astronomical Twilight 5:23 AM EDT 7:58 PM EDT
Moon 4:34 PM EDT (10/8) 1:30 AM EDT (10/8)
Length of Visible Light 12h 20m
Length of Day
11h 22m
Waxing Gibbous, 77% of the Moon is Illuminated
Oct 8
Waxing Gibbous
Oct 13
Full
Oct 21
Last Quarter
Oct 27
New
Nov 4
First Quarter

Hourly Weather History & Observations

Time (EDT) Temp. Dew Point Humidity Pressure Visibility Wind Dir Wind Speed Gust Speed Precip Events Conditions
12:53 AM 54.0 °F 50.0 °F 86% 30.15 in 10.0 mi WSW 3.5 mph - N/A   Clear
1:53 AM 53.1 °F 50.0 °F 89% 30.18 in 10.0 mi Calm Calm - N/A   Clear
2:53 AM 52.0 °F 48.9 °F 89% 30.18 in 9.0 mi WSW 4.6 mph - N/A   Clear
3:53 AM 52.0 °F 46.0 °F 80% 30.19 in 10.0 mi Calm Calm - N/A   Clear
4:53 AM 48.0 °F 46.0 °F 93% 30.22 in 7.0 mi Calm Calm - N/A   Clear
5:53 AM 46.9 °F 44.1 °F 90% 30.25 in 10.0 mi SSW 3.5 mph - N/A   Clear
6:53 AM 48.0 °F 43.0 °F 83% 30.28 in 10.0 mi WSW 4.6 mph - N/A   Clear
7:53 AM 48.0 °F 43.0 °F 83% 30.30 in 10.0 mi Variable 3.5 mph - N/A   Clear
8:53 AM 54.0 °F 45.0 °F 72% 30.32 in 10.0 mi Calm Calm - N/A   Clear
9:53 AM 59.0 °F 46.0 °F 62% 30.32 in 10.0 mi Calm Calm - N/A   Clear
10:53 AM 59.0 °F 42.1 °F 53% 30.33 in 10.0 mi North 3.5 mph - N/A   Clear
11:53 AM 60.1 °F 45.0 °F 57% 30.33 in 10.0 mi NE 6.9 mph - N/A   Partly Cloudy
12:53 PM 62.1 °F 44.1 °F 52% 30.32 in 10.0 mi NE 6.9 mph - N/A   Clear
1:53 PM 62.1 °F 43.0 °F 50% 30.32 in 10.0 mi East 9.2 mph - N/A   Clear
2:53 PM 62.1 °F 44.1 °F 52% 30.31 in 10.0 mi East 6.9 mph - N/A   Clear
3:53 PM 63.0 °F 41.0 °F 45% 30.32 in 10.0 mi East 6.9 mph - N/A   Clear
4:53 PM 62.1 °F 39.9 °F 44% 30.31 in 10.0 mi NE 5.8 mph - N/A   Clear
5:53 PM 59.0 °F 42.1 °F 53% 30.31 in 10.0 mi NNE 4.6 mph - N/A   Clear
6:53 PM 50.0 °F 46.0 °F 86% 30.32 in 10.0 mi Calm Calm - N/A   Clear
7:53 PM 46.9 °F 44.1 °F 90% 30.33 in 10.0 mi Calm Calm - N/A   Clear
8:53 PM 45.0 °F 43.0 °F 93% 30.35 in 10.0 mi Calm Calm - N/A   Clear
9:53 PM 44.1 °F 41.0 °F 89% 30.36 in 10.0 mi Calm Calm - N/A   Clear
10:53 PM 42.1 °F 39.9 °F 92% 30.36 in 10.0 mi Calm Calm - N/A   Clear
11:53 PM 41.0 °F 39.0 °F 93% 30.37 in 10.0 mi Calm Calm - N/A   Clear